Location: ???????
(52.3000°N, 54.4667°E)
Time: 20:19:34
(UTC+00:00)

NOSS 3-3 (A) - Pass Details

Date: 24 January 2020
Orbit: 841 x 1372 km, 63.4° (Epoch: 19 February)

Event Time Altitude Azimuth Distance (km) Brightness Sun altitude
Rises 16:16:24 0° 313° (NW) 3,905 7.9 -30.6°
Reaches altitude 10° 16:18:56 10° 313° (NW) 3,018 7.2 -31.0°
Maximum altitude 16:26:16 82° 228° (SW) 1,252 4.4 -32.1°
Enters shadow 16:26:57 75° 169° (S) 1,287 4.4 -32.2°
